Terminal Aerodrome Forecast
Issued by NWS

Home | Current Version | Previous Version | Text Only | Print | Product List | Glossary On
Versions: 1 2 3 4 5 6 7 8 9 10 11 12 13 14 15 16 17 18 19 20
000
FTUS46 KHNX 311759 AAA
TAFMCE
TAF AMD
KMCE 311759Z 3118/0118 VRB04KT 2SM BR SCT008
     FM311900 VRB04KT 3SM BR SCT008
     FM312100 VRB04KT 4SM HZ SKC
     FM010600 00000KT 2SM BR SCT005
     FM011000 00000KT 1/2SM FG OVC002
      TEMPO 0112/0116 1/4SM FG VV001=

USA.gov is the U.S. government's official web portal to all federal, state and local government web resources and services.